sat.trackr.live / text

‹ back to catalog

STARLINK-30598

NORAD 58079 · 2023-160E

PAYLOAD ACTIVE UNKNOWN

§ Identity

Operator
Country
US
Launch date
2023-10-18
Launch site
AFETR
Launch vehicle
Mass (kg)
RCS (m²)

Purposes: comms

External: N2YO · Heavens-Above · Gunter

§ Orbital elements

Epoch: 2026-09-20T17:17:46.412448Z

Period
94.27 min
Inclination
43.0035°
Eccentricity
0.0002496
Mean motion
15.27588575 rev/d
Perigee alt
481.3 km
Apogee alt
484.7 km
Semi-major
6,861.2 km
B*
-8.0306e-5
RAAN
56.4284°
Arg perigee
279.5709°
Mean anomaly
80.4861°
Rev number
16,277

§ Raw data

STARLINK-305981 58079U 23160E   26263.72067607 -.00002473  00000+0 -80306-4 0  99932 58079  43.0035  56.4284 0002496 279.5709  80.4861 15.27588575162778

JSON: /api/v1/satellites/58079 · /tle

For live sub-satellite position, see the globe view (requires WebGL).

§ Visibility from observer

Set your observer location to see the next 7 days of passes ≥ 10°. The values pass through the URL so the page stays shareable.

No JS? Fill the form by hand. The geolocation button needs JavaScript.